Location: Pcim
(49.7500°N, 19.9670°E)
Time: 06:59:02
(UTC+02:00)

LilacSat-2 - Visible Passes

Search period start: 19 September 2024 00:00
Search period end: 29 September 2024 00:00
Orbit: 470 x 487 km, 97.5° (Epoch: 18 September)

Date Brightness Start Highest point End Pass type
(mag) Time Alt. Az. Time Alt. Az. Time Alt. Az.
19 Sep ? 19:24:14 10° SW 19:26:29 16° W 19:28:47 10° NW visible
22 Sep ? 19:39:33 10° WSW 19:40:49 12° W 19:42:05 10° WNW visible
23 Sep ? 19:11:21 10° SSW 19:14:09 22° W 19:16:57 10° NW visible
26 Sep ? 19:25:52 10° SW 19:28:06 16° W 19:30:22 10° NW visible
27 Sep ? 18:58:15 10° SSW 19:01:23 30° W 19:04:34 10° NNW visible
